Helicity
19 11 14 16 14 49 53 105 70 89 43 97 165 162 92 50 68 143 232 149 227 304 366 361 374 309 287 259 265 214 297 305 301 269 274 275 306 309 356 327 278 293 285 328 306 304 266 244 281 233 212 226 209 195
9 18 7 11 13 10 32 44 82 56 58 81 132 92 64 22 54 156 244 179 149 180 174 195 260 364 402 381 313 328 320 304 259 346 385 373 461 478 381 307 326 289 294 220 209 206 256 247 266 238 202 189 149 136
4 4 17 8 6 7 13 34 70 87 92 82 64 59 40 14 14 127 167 114 201 198 186 175 191 263 318 354 351 381 459 508 579 625 485 330 281 249 285 279 265 300 231 245 245 316 300 273 238 210 180 125 101 82
13 7 8 14 9 4 7 21 57 97 57 51 83 141 7 49 135 98 146 119 139 140 240 226 158 236 273 341 317 247 282 350 314 336 333 282 284 229 256 239 232 232 206 216 258 261 287 235 202 156 128 97 92 83
10 12 13 13 14 11 2 10 21 48 70 13 71 231 55 197 98 99 127 139 125 76 134 147 116 169 217 255 262 229 196 205 236 270 272 273 274 260 246 243 261 173 173 231 208 180 200 199 134 96 116 113 97 86
7 9 14 15 14 14 9 3 11 28 65 43 9 71 32 32 20 55 82 58 61 99 104 142 82 130 131 119 186 199 157 186 230 259 264 234 172 205 231 236 128 103 141 129 182 186 160 123 121 120 121 93 80 71
-2 11 14 15 13 15 10 1 7 17 36 81 39 41 26 19 69 65 92 55 56 57 104 113 126 87 78 72 88 101 88 108 127 180 219 200 191 187 232 208 99 108 136 147 137 132 137 122 118 80 64 57 58 82
-3 6 12 19 12 14 14 4 5 15 35 71 40 -3 20 28 47 100 124 38 37 136 77 65 104 71 24 72 86 48 74 77 112 107 118 141 148 169 162 76 120 170 136 116 94 95 83 75 63 48 48 63 67 82
-8 3 7 7 11 13 9 6 9 21 12 13 90 104 136 113 98 91 80 42 35 35 68 63 60 52 3 22 16 25 25 88 49 100 96 90 118 121 61 53 80 55 81 93 91 79 57 56 41 37 49 51 62 90
-9 7 9 3 7 4 2 5 10 26 14 11 26 44 109 135 76 107 73 35 29 11 5 20 10 28 15 22 44 53 61 77 75 76 72 83 57 -3 72 69 75 84 85 94 100 59 37 31 29 55 65 68 94 87
1 7 4 5 7 0 1 -2 0 2 7 24 62 43 52 144 148 129 119 104 56 60 11 33 46 51 36 42 57 75 66 80 95 77 91 80 55 50 69 42 18 23 45 45 43 23 9 41 57 67 75 91 96 98
5 3 4 1 7 8 4 10 36 12 2 30 16 9 63 64 69 89 127 94 54 58 57 78 65 30 41 62 69 81 78 79 74 56 81 57 21 31 31 43 47 29 22 21 15 24 42 57 69 95 107 88 92 97
10 3 18 11 17 15 3 39 45 29 -4 25 60 53 59 77 103 135 119 92 81 32 21 4 52 54 68 75 76 65 72 51 53 57 19 17 23 26 17 19 17 6 4 29 31 49 51 63 79 100 85 86 94 86
14 16 23 8 3 8 47 74 73 18 11 27 55 102 73 91 79 52 60 41 26 33 65 80 95 59 56 75 46 64 49 56 44 38 38 32 31 5 -21 1 13 -1 11 30 36 42 50 69 75 75 88 93 76 49
14 26 20 9 7 11 40 70 43 29 7 18 38 73 81 90 63 39 72 71 62 52 83 85 101 68 61 59 53 59 57 26 34 73 43 27 22 30 18 22 22 30 45 52 58 67 85 91 75 76 87 79 73 57
8 27 11 5 26 38 57 122 49 12 18 19 23 45 53 50 78 76 60 89 84 37 78 86 70 61 63 55 61 32 69 67 91 29 13 12 15 17 16 24 35 51 60 70 91 118 113 70 54 48 67 63 51 34
35 26 9 39 60 51 20 6 38 36 -13 5 7 19 27 29 44 16 35 107 105 127 126 66 71 51 59 62 44 52 77 54 31 3 5 16 12 18 44 56 74 79 82 89 112 126 104 96 103 93 66 38 31 32
46 31 65 71 29 25 14 7 10 -3 12 9 13 23 18 15 30 63 46 54 96 94 70 68 62 65 45 35 36 40 7 -11 13 18 10 -16 13 39 57 57 67 71 80 103 121 118 105 100 97 88 63 48 8 6
-6 10 51 30 7 8 9 11 37 25 -6 16 13 21 13 10 -3 1 10 -6 70 93 78 72 65 46 19 26 29 -2 2 28 27 -29 -3 23 42 54 62 75 81 91 103 104 96 98 102 96 97 73 57 22 29 40
28 15 22 24 23 15 19 5 3 30 31 25 24 27 13 8 38 20 26 36 16 42 61 67 12 12 40 35 17 19 21 10 -14 -7 18 57 70 83 74 67 84 95 97 89 100 95 98 80 79 78 56 44 34 33
46 47 33 11 14 15 -7 -14 3 12 18 31 34 48 45 49 32 51 36 25 40 54 36 28 38 26 -2 -7 3 22 29 39 51 50 66 95 86 96 71 78 97 92 94 93 99 79 62 71 65 54 40 32 38 34
12 9 18 15 12 2 6 18 2 6 20 23 37 45 48 52 55 50 65 64 18 38 41 26 25 36 39 40 43 44 40 67 77 93 112 118 92 72 75 83 74 74 91 96 78 61 64 62 43 30 40 33 30 17
-5 2 7 29 19 10 -15 -3 -12 16 3 9 8 21 38 40 40 48 35 17 14 16 6 9 26 41 25 28 54 84 81 76 89 78 69 69 74 89 92 84 93 104 95 69 67 63 48 21 26 24 16 5 9 16
-9 8 18 18 16 11 6 13 9 12 5 5 -18 -7 15 43 55 37 7 27 33 31 40 65 58 60 71 91 54 32 46 42 48 52 48 60 51 59 67 73 83 90 94 73 60 46 46 52 -4 3 23 44 48 55
31 4 32 20 9 23 21 12 6 20 10 -1 -17 -3 3 28 42 46 45 39 72 110 130 115 84 57 40 25 5 21 34 31 42 40 42 50 18 52 53 66 63 70 75 55 39 38 14 32 37 47 61 67 79 95
12 6 25 32 17 13 5 -1 3 13 15 26 18 15 1 -2 11 16 31 72 101 99 91 64 36 13 15 -2 -11 7 21 30 30 17 24 16 21 51 59 40 38 60 55 51 37 44 53 60 80 89 84 86 79 59
-4 7 19 24 35 30 12 3 4 18 13 14 28 37 30 16 -9 -28 -4 51 66 37 20 7 -1 -8 -13 -6 -6 -5 0 9 -1 44 15 24 29 24 59 57 57 82 71 61 48 65 88 94 104 102 107 113 104 95
-2 -6 -11 -1 18 6 11 5 21 8 -13 -9 27 49 31 10 -3 9 34 39 34 -6 -22 -15 -10 -10 -24 -26 -23 -15 -20 -21 -13 24 46 57 -75 -24 1 48 57 75 67 72 80 68 70 72 90 115 108 95 84 65
13 -9 -26 -36 -16 -2 9 -1 23 12 27 17 8 20 26 22 21 43 46 52 17 4 16 31 35 30 24 -10 -2 -27 -31 -48 -31 -17 -8 -15 -1 -27 15 66 98 132 118 102 76 41 37 41 45 58 62 52 47 45
65 36 2 -21 -35 -15 10 3 -2 24 3 1 1 2 8 11 28 38 27 31 34 20 9 -1 9 6 -18 -25 -30 -39 -8 -6 -34 -46 -17 4 34 120 139 160 153 103 69 60 59 63 52 25 34 32 32 28 19 17
27 45 40 20 0 -14 -9 -5 -9 -10 -11 -9 11 -10 -10 -6 1 31 39 14 3 6 7 45 25 -14 -26 -28 -26 -24 -30 -49 -17 -31 -1 57 112 125 134 102 85 83 80 68 58 48 48 40 38 44 43 42 19 21
22 21 32 37 30 8 -21 -38 -29 -23 -5 -3 13 6 13 7 16 17 17 27 20 30 43 28 16 -8 -23 -38 -47 -9 0 30 20 28 21 43 43 57 26 32 66 80 72 65 56 52 49 41 46 48 47 37 12 14
0 7 17 31 30 32 26 13 8 20 27 28 35 40 44 43 35 30 24 7 2 9 48 58 32 10 -2 -16 -26 -28 -17 7 12 -2 -4 -1 10 18 -1 22 53 56 65 60 46 43 44 43 41 43 40 19 4 5
Wind_Speed
76 77 77 76 75 74 75 74 73 74 76 74 76 73 66 45 39 42 41 35 41 57 58 54 56 57 55 56 65 52 49 55 53 62 62 63 68 64 69 61 63 62 59 65 64 74 90 39 45 63 51 47 50 56
47 73 76 75 75 74 74 73 73 71 73 73 71 69 71 43 38 39 42 37 32 44 47 44 42 43 46 46 48 46 52 49 46 55 59 59 65 62 62 70 51 62 54 58 52 60 39 40 42 39 38 47 53 60
38 41 66 74 73 72 72 70 70 69 67 67 61 62 42 33 34 43 42 34 37 42 46 46 47 47 42 46 46 52 50 47 47 44 47 51 58 50 60 62 51 48 42 52 50 45 38 37 37 39 43 51 51 56
37 40 48 63 72 71 70 69 67 67 65 62 59 61 45 34 29 35 41 38 38 39 47 47 38 44 48 45 41 41 37 38 38 39 40 45 50 44 52 49 52 47 40 50 52 41 39 39 40 42 46 50 57 61
40 40 42 55 64 69 68 67 66 66 65 61 58 57 24 18 24 27 31 34 33 38 40 39 32 38 37 36 35 31 29 32 36 39 43 48 41 42 44 47 53 43 50 53 59 40 45 41 39 43 56 61 62 67
45 39 44 51 62 66 66 65 65 64 63 60 56 51 31 21 22 32 41 33 28 27 35 40 30 33 31 27 27 27 28 30 33 36 38 39 39 41 51 58 47 42 38 38 43 39 40 40 46 52 56 62 67 74
42 37 42 46 56 60 64 64 63 63 62 62 60 47 33 30 32 34 39 30 20 22 30 35 37 32 28 26 27 27 27 31 34 37 41 41 41 39 49 59 48 39 37 35 35 38 47 46 50 51 56 63 71 77
40 34 36 44 47 56 60 61 60 59 59 58 52 46 37 30 28 31 24 11 19 28 27 33 35 32 29 29 31 30 32 32 36 37 38 42 40 44 58 49 40 38 34 36 36 37 41 43 48 56 60 71 81 84
39 32 33 39 40 50 56 58 57 56 51 42 32 21 27 34 35 27 19 20 25 29 29 31 31 38 27 27 28 30 31 38 35 40 41 40 45 52 44 37 35 32 34 34 32 36 42 50 58 66 76 79 81 82
38 28 32 33 27 47 53 55 53 52 48 41 38 35 32 33 8 11 24 27 29 31 28 27 24 26 27 28 32 33 34 36 45 40 36 44 50 43 41 38 38 34 32 30 36 45 50 58 69 79 79 78 76 78
28 28 28 50 53 45 50 50 48 44 40 37 36 36 26 23 25 26 29 30 31 32 30 27 25 23 30 31 32 35 36 38 45 44 43 47 49 42 39 36 38 35 32 31 38 45 51 63 76 82 82 76 74 78
27 27 46 31 47 36 38 44 35 37 35 33 27 25 27 30 30 31 30 30 29 33 27 24 22 23 27 31 34 36 38 38 47 38 43 49 43 38 36 31 27 25 27 34 41 53 65 72 75 74 72 76 77 78
34 37 50 47 44 43 41 24 26 22 26 31 33 35 36 34 33 30 28 29 26 22 20 15 20 27 27 30 32 33 37 39 33 41 47 42 37 33 26 25 28 33 37 43 53 66 72 75 74 70 75 76 80 80
44 46 43 42 38 35 25 21 23 24 30 32 35 37 40 38 35 32 29 27 25 19 8 11 22 27 27 30 29 35 34 33 41 45 45 38 35 27 22 30 34 43 48 57 68 73 77 76 77 76 76 78 79 82
43 42 32 33 32 27 21 20 20 27 28 29 31 35 38 35 35 36 35 29 25 6 8 17 24 26 27 29 31 31 35 39 36 36 32 34 29 28 33 37 42 53 59 65 70 72 74 77 82 84 76 74 73 76
37 26 29 24 20 22 22 18 21 27 28 28 29 30 31 34 35 32 27 19 10 2 15 24 24 26 28 25 30 32 30 32 30 27 28 28 31 37 43 47 54 59 61 64 66 65 73 84 84 82 77 74 75 76
21 26 19 19 21 23 22 20 22 25 27 28 27 29 26 28 29 28 24 19 15 19 24 23 24 26 22 28 28 25 27 24 22 23 27 34 41 48 40 48 52 57 60 63 59 62 76 73 70 68 75 77 72 71
22 19 23 22 20 21 26 27 27 26 26 27 25 26 27 27 23 22 25 17 19 21 20 25 21 23 24 24 27 24 21 21 23 27 27 16 16 35 45 51 55 60 64 63 61 68 70 66 64 65 71 69 73 74
29 24 26 19 21 25 28 29 28 25 26 27 28 30 29 29 29 28 19 15 26 27 24 27 28 27 27 22 22 20 20 23 32 18 18 31 44 51 52 55 61 65 65 65 69 66 61 58 60 68 65 71 69 64
33 17 16 20 25 27 29 29 29 29 30 32 31 32 31 32 34 28 23 22 22 25 33 33 29 27 25 23 20 20 27 41 23 33 39 44 49 53 56 64 68 68 67 66 65 64 62 62 56 57 60 60 60 61
22 20 20 25 24 28 29 28 29 30 31 33 35 35 35 33 31 32 29 31 32 32 31 34 36 30 26 27 29 33 41 43 44 41 53 54 56 58 64 68 70 68 66 70 64 63 64 61 61 57 55 56 56 53
37 30 28 26 25 25 26 32 32 32 33 34 35 34 33 32 32 31 32 34 39 40 38 38 35 38 36 38 39 41 49 49 46 50 56 57 62 70 72 71 71 70 68 61 62 65 62 57 56 58 56 55 56 58
39 33 5 29 29 29 31 28 28 25 33 31 34 32 33 32 33 34 31 33 36 37 40 39 37 36 37 37 36 37 45 49 52 56 55 53 57 64 67 64 61 58 60 59 59 58 56 60 60 59 57 51 40 34
36 34 34 33 32 32 34 34 34 34 32 32 29 28 28 29 30 27 29 30 34 36 34 34 35 31 28 31 37 42 49 52 54 53 51 58 69 71 62 57 50 47 50 57 54 49 51 39 44 38 32 29 27 27
33 35 34 33 33 32 32 34 35 34 34 32 28 25 24 26 25 27 28 29 27 25 26 28 29 32 36 40 42 44 49 53 56 60 56 62 69 62 61 53 44 40 44 47 46 17 21 22 23 23 23 23 24 25
30 33 34 32 31 29 27 29 31 32 32 32 30 28 26 24 24 25 25 23 22 24 29 35 37 37 36 38 41 47 53 54 56 60 53 63 64 60 54 49 46 44 44 35 17 17 17 17 19 19 20 20 21 23
27 28 32 33 34 34 33 33 32 31 31 30 30 28 27 26 25 22 21 23 25 28 30 33 34 34 38 42 46 49 50 57 59 39 23 37 52 53 47 36 36 23 16 20 17 15 15 15 16 18 20 21 22 24
28 27 26 28 32 34 33 33 32 22 27 27 25 28 28 27 25 26 25 30 32 33 35 36 38 38 41 45 48 52 53 57 58 55 42 49 47 11 12 11 10 29 25 19 18 17 18 18 19 20 21 23 24 24
27 24 26 27 29 31 32 33 32 35 29 33 26 25 25 25 25 26 28 30 32 35 37 39 41 42 44 45 50 51 54 55 55 56 52 49 46 42 36 30 30 26 23 20 19 19 20 20 20 21 22 25 28 28
29 26 29 29 30 31 31 32 32 23 25 17 23 22 21 23 23 26 28 31 33 34 36 38 37 38 38 40 41 46 54 56 62 60 31 36 33 29 29 34 31 27 25 22 21 21 22 21 21 20 22 26 31 38
24 28 31 30 30 30 29 29 30 31 31 31 30 33 34 27 29 28 31 34 34 36 34 32 30 30 34 38 42 43 44 39 35 38 28 22 23 23 32 34 33 28 24 23 22 22 22 21 19 19 22 26 35 40
22 25 27 30 31 28 28 30 31 32 31 32 32 33 35 35 34 31 34 32 27 27 26 27 29 29 28 26 18 9 2 16 25 30 35 32 32 34 38 37 32 27 26 24 23 22 22 21 20 19 21 25 35 40
23 23 26 27 30 32 32 35 36 36 30 31 30 32 33 33 32 28 22 19 20 22 28 29 26 22 22 21 22 31 35 27 25 35 38 42 40 42 41 37 32 30 27 24 23 22 21 22 22 20 21 26 33 40
Wind_Direction
327 320 313 312 314 309 307 300 299 300 305 296 295 289 285 265 264 274 277 275 272 271 276 277 278 274 274 272 269 274 273 274 271 269 272 276 278 280 284 285 287 285 287 289 290 291 293 305 310 304 313 320 320 321
349 327 316 312 310 309 305 304 298 297 301 302 300 297 282 259 260 266 272 276 277 277 282 282 283 284 282 282 276 272 276 277 273 273 275 280 280 283 282 283 290 287 289 293 293 299 311 313 314 321 324 320 320 321
349 348 330 311 311 307 307 303 303 301 300 303 296 294 299 271 262 267 268 270 278 279 281 279 278 282 291 288 284 270 276 282 279 288 281 282 281 283 280 282 289 295 301 296 299 304 307 314 320 323 325 322 326 325
347 346 342 330 309 308 304 303 301 301 296 299 307 296 286 282 275 278 270 274 277 280 275 279 290 282 289 288 289 284 279 286 285 288 283 283 283 293 287 294 291 298 302 301 302 304 312 315 318 321 323 326 325 325
340 344 342 333 323 308 304 302 297 299 296 295 295 305 291 285 296 293 288 277 283 279 281 278 289 297 299 292 288 289 289 285 282 281 284 282 293 297 300 299 295 300 300 297 299 309 310 311 319 324 323 323 325 325
337 339 340 334 321 311 303 300 297 297 291 286 284 295 270 281 294 287 277 285 283 296 281 277 299 303 301 307 295 295 294 290 287 288 291 296 301 297 296 294 304 304 308 310 308 316 318 319 320 323 323 324 324 324
335 336 339 335 323 317 304 298 294 295 290 287 278 283 275 272 282 287 280 287 275 290 288 280 283 299 305 308 307 304 303 298 296 295 294 296 299 299 297 294 307 309 312 313 317 319 317 320 321 325 326 325 324 324
337 337 340 337 331 319 308 297 294 293 295 289 277 291 268 265 278 287 298 282 287 290 296 284 283 290 305 300 299 306 300 301 303 300 303 299 303 302 297 302 304 312 315 316 317 322 323 326 326 325 327 326 323 323
339 340 341 339 336 322 311 297 292 291 291 299 298 312 285 273 275 285 290 285 296 289 288 289 282 280 300 306 310 308 309 298 310 301 302 306 302 299 305 308 314 312 314 318 321 324 325 323 323 324 324 325 324 325
342 344 344 344 348 320 310 295 290 291 287 282 279 268 274 277 356 318 282 279 284 288 296 292 297 293 298 301 306 306 309 303 298 305 314 306 303 299 305 308 312 315 316 318 318 321 323 323 323 323 325 326 326 327
357 353 353 260 267 310 284 275 285 291 286 273 269 262 271 276 273 281 274 276 282 283 288 289 292 295 306 305 306 312 305 307 301 305 305 306 307 315 322 318 314 305 311 317 322 325 327 325 324 323 324 327 327 327
4 3 254 255 259 224 230 272 311 294 282 271 268 273 263 267 270 268 270 278 289 279 290 289 296 312 320 320 313 311 308 310 303 313 308 305 311 318 322 328 337 342 336 330 329 326 325 325 325 325 326 325 327 329
345 326 280 275 268 264 269 2 355 329 296 280 266 260 256 266 264 265 264 277 283 289 296 306 315 326 334 337 326 322 312 311 327 312 308 312 325 333 338 342 341 338 334 331 328 325 325 326 328 329 325 326 327 328
315 287 253 269 288 297 356 53 51 339 295 275 264 259 257 260 268 271 277 284 297 307 328 341 331 330 333 330 332 319 324 327 313 310 312 326 332 338 343 338 337 333 330 327 324 325 327 329 327 326 326 327 326 323
288 274 316 299 304 318 50 46 10 319 298 284 274 267 262 268 275 279 283 291 299 323 336 335 336 334 331 329 333 331 321 315 317 322 334 342 350 347 340 337 333 331 329 328 329 330 331 330 325 324 328 328 329 326
278 347 315 304 340 356 14 344 347 16 319 300 288 277 276 274 278 288 287 291 297 10 328 327 326 324 328 343 332 326 327 323 337 346 351 358 352 342 336 335 332 331 332 332 335 337 334 325 322 321 326 328 326 320
356 324 331 27 29 25 352 287 319 313 311 306 297 289 297 297 285 289 293 281 283 285 296 319 320 323 349 339 337 347 339 350 13 3 358 348 338 333 355 348 344 339 338 338 341 340 332 332 334 334 329 325 323 325
322 2 58 55 24 330 316 309 294 313 296 285 297 304 292 297 305 305 285 287 272 280 299 310 328 326 333 335 340 5 31 25 2 1 18 70 35 1 352 348 346 342 340 342 342 338 336 338 338 337 331 329 322 323
53 62 68 36 330 336 333 308 301 305 311 303 292 274 288 280 276 277 298 297 279 273 293 297 305 308 313 351 2 23 27 334 334 76 48 16 358 351 349 347 343 342 343 342 339 341 344 344 342 333 331 325 327 332
54 14 3 324 302 330 337 329 307 304 302 305 313 304 301 289 274 291 295 285 296 286 275 282 293 304 329 343 358 10 345 306 23 3 359 357 354 351 349 343 341 342 342 343 343 343 345 344 346 345 341 339 337 336
186 232 246 237 247 341 353 330 312 309 314 312 306 303 298 298 292 283 287 278 285 291 294 287 281 305 326 324 325 330 320 325 338 347 338 343 347 348 343 341 340 341 344 342 346 346 344 344 343 345 345 342 341 342
139 168 201 224 287 236 294 310 328 333 325 326 322 309 299 300 294 290 287 281 289 282 281 285 292 300 310 306 312 315 308 326 339 338 337 342 341 339 338 339 339 342 345 350 348 345 347 349 347 343 343 341 337 322
92 114 78 293 292 285 301 278 294 192 356 20 344 302 287 286 286 275 283 288 289 286 279 287 293 302 308 316 325 326 328 338 342 339 344 349 350 346 344 346 350 354 353 354 353 353 352 347 344 341 328 300 276 261
64 42 11 360 334 338 309 314 322 356 46 65 290 285 277 276 273 282 284 293 296 292 294 300 306 309 324 331 326 329 337 342 341 349 356 349 339 340 349 355 2 5 3 356 0 5 2 12 285 278 266 255 246 234
45 40 42 41 1 349 348 343 334 331 310 298 284 274 276 271 280 282 286 294 304 316 324 326 327 317 313 317 328 334 338 341 343 340 348 347 341 351 354 4 11 16 14 11 14 25 269 261 254 246 241 234 226 223
73 56 63 65 67 76 72 47 15 343 312 288 283 266 276 285 287 289 286 278 285 294 310 319 318 312 313 317 326 335 340 348 348 338 354 343 345 356 5 10 15 18 20 24 265 263 257 243 231 228 223 222 223 215
84 76 50 66 54 51 44 19 19 10 321 292 278 276 283 284 282 287 299 303 286 286 297 308 312 315 320 329 337 339 352 346 340 10 32 25 9 7 18 28 24 26 273 264 252 237 226 221 221 217 217 216 207 200
86 88 104 78 63 45 72 87 123 207 277 281 294 277 280 282 279 265 277 282 287 290 304 311 325 325 336 343 348 350 348 324 333 2 22 16 317 40 356 35 300 281 271 253 243 231 220 217 218 218 215 210 205 202
105 126 131 122 106 97 105 132 140 102 144 159 243 267 274 275 274 273 271 285 299 317 321 319 325 331 346 1 355 341 345 335 328 324 318 311 307 305 300 296 290 278 264 249 246 241 233 229 227 223 213 202 196 192
103 117 128 138 140 136 136 137 141 238 276 244 255 262 265 263 274 282 291 294 302 303 305 307 301 306 306 312 314 324 5 10 351 337 295 298 294 290 293 295 289 280 271 258 250 247 247 241 241 230 217 202 183 161
127 113 112 122 134 143 154 166 164 163 166 173 210 193 215 271 266 289 303 288 292 308 299 292 286 287 301 310 315 315 315 323 306 306 291 279 281 284 291 292 290 280 269 259 253 248 245 242 234 229 223 213 181 165
150 132 120 114 119 132 143 142 154 164 172 174 185 190 194 204 220 273 299 298 284 288 278 281 282 276 276 268 254 123 170 290 297 300 301 296 296 296 300 299 291 280 273 264 255 249 243 232 225 225 219 207 181 174
169 156 142 133 125 123 128 127 132 144 172 178 184 184 185 188 192 197 212 270 238 269 286 280 262 245 252 248 265 293 301 297 299 306 308 311 308 310 308 302 296 289 282 269 259 253 243 235 227 221 210 193 181 172